Location: Los Ranchitos
(37.9930°N, 122.5425°W)
Time: 07:31:23
(UTC+00:00)

Cosmos 2082 Rocket - Pass Details

Date: 21 September 2020
Orbit: 834 x 853 km, 71.0° (Epoch: 27 October)

Event Time Altitude Azimuth Distance (km) Brightness Sun altitude
Rises 04:42:24 0° 351° (N) 3,389 5.8 -29.9°
Reaches altitude 10° 04:45:36 10° 9° (N) 2,452 4.8 -30.5°
Enters shadow 04:47:03 15° 23° (NNE) 2,133 4.3 -30.7°
